Location: Albany
(35.0000°S, 118.0000°E)
Time: 14:44:56
(UTC-05:00)

Vanguard 3 - Visible Passes

Search period start: 26 February 2017 00:00
Search period end: 08 March 2017 00:00
Orbit: 508 x 3265 km, 33.3° (Epoch: 26 February)

Date Brightness Start Highest point End Pass type
(mag) Time Alt. Az. Time Alt. Az. Time Alt. Az.
26 Feb 7.7 06:49:01 10° W 06:57:47 65° NNW 07:01:16 22° ENE visible
26 Feb 9.6 09:05:04 10° WNW 09:05:51 12° WNW 09:05:51 12° WNW visible
27 Feb 8.0 07:48:59 10° W 07:55:45 37° NNW 07:56:23 36° NNW visible
28 Feb 8.1 06:32:49 10° W 06:42:27 61° NNW 06:46:56 17° ENE visible
28 Feb 9.5 08:49:47 10° WNW 08:51:32 14° WNW 08:51:32 14° WNW visible
01 Mar 8.3 07:33:03 10° W 07:40:19 34° NW 07:42:06 28° N visible
02 Mar 8.4 06:16:30 10° W 06:27:01 57° NNW 06:32:40 11° NE visible
02 Mar 9.5 08:34:32 10° WNW 08:37:16 13° NW 08:37:16 13° NW visible
03 Mar 8.8 07:17:01 10° W 07:24:47 31° NW 07:27:53 20° N visible
04 Mar 8.8 06:00:05 10° W 06:11:29 53° NNW 06:17:50 10° NE visible
04 Mar 9.6 08:19:22 10° WNW 08:21:54 12° NW 08:23:06 11° NW visible
05 Mar 9.2 07:00:54 10° W 07:09:09 29° NW 07:13:46 13° NNE visible
06 Mar 9.9 08:04:35 10° WNW 08:06:09 11° NW 08:07:35 10° NW visible
07 Mar 9.6 06:44:44 10° W 06:53:23 27° NW 06:59:02 10° NNE visible
